Tracking 25709 objects as of 23-May-2022
HD Live streaming from Space Station
objects crossing your sky now

COSMOS 2251 DEB

Track COSMOS 2251 DEB now!
10-day predictions


NORAD ID: 35288
Int'l Code: 1993-036AJS
Perigee: 705.0 km
Apogee: 773.9 km
Inclination: 74.0 °
Period: 99.4 minutes
Semi major axis: 7110 km
RCS: 0.0003 m2 (small)
Launch date: June 16, 1993
Source: Commonwealth of Independent States (former USSR) (CIS)
Launch site: PLESETSK MISSILE AND SPACE COMPLEX (PKMTR)

Note: This is SATELLITE DEBRIS
aabbcc
Your satellite tracking list
Your tracking list is empty




NASA's NSSDC Master Catalog

Two Line Element Set (TLE):
1 35288U 93036AJS 22142.90640941  .00004415  00000-0  11790-2 0  9995
2 35288  73.9566 328.2608 0048481 135.2740 225.2344 14.47967936689731
Source of the keplerian elements: AFSPC